Kosmos-1748

operational
NORAD ID: 16758 Int'l Des: 1986-042 Owner: UNKS Country: SU
LEOCIRCULAR

关于 Kosmos-1748

正在加载描述...

实时位置

正在加载3D地球...

即将过境

高度历史

Altitude vs Time

uPlot chart will show altitude changes over time

两行轨道根数

1 16758U 86042A 26062.46980509 .00000000 00000-0 10345-3 0 9990
2 16758 74.0154 74.6988 0011434 252.8434 179.6000 12.50786841814618
Epoch: Mar 3, 2026 • Age: 22 hours

当前状态

高度 1474.4 km
速度 7.13 km/s
星下点 -57.96°S, 152.92°E
发射日期 Jun 6, 1986
运行时间 39.7 years
类型 other

技术详情

分类 Payload
质量 60.00 kg
干质量 60.00 kg
总质量 60.00 kg
长度 0.80 m
直径 0.80 m
跨度 0.80 m
形状 Poly
制造商 NPOPM
平台类型 Strela-1 11F625
阶段状态 In Orbit
所有者/国家 UNKS/SU

大型星座

Loading constellations...